Date String (YYYY-MM-DD hh:mm:ss) UTC,Instrument flags,absolute air pressure of the measurement (hPa),sample flow rate (lpm),inlet stack bypass flow (lpm),air temperature of the measurement (°C),ambient temperature measured by the external sensor (°C),aerosol sample conditioner tube jacket temperature (°C),OPC LED temperature (°C),internal box temperature (°C),relative humidity of the measurement (%),span deviation,mass concentration of particles derived from Lorenz-Mie calculation of OPC scattering (μg/m³),mass concentration of particles derived from Lorenz-Mie calculation of OPC scattering (μg/m³),mass concentration of particles derived from Lorenz-Mie calculation of OPC scattering (μg/m³)
DateTimeUTC,F1_M11,P_M11,Q1_M11,Q2_M11,T1_M11,T2_M11,T3_M11,T4_M11,T5_M11,U1_M11,ZSPAN_M11,X0_M11,X2_M11,X1_M11
2024-01-04 03:00:00,SystemResetWarning,0827.3,4.99,000.00,023.9,022.7,000.0,032.3,025.2,9.4,0000.0,0013.57,0004.81,0003.95
2024-01-04 03:01:00,SystemResetWarning,0827.3,5.00,000.00,023.9,022.6,000.0,032.3,025.2,9.4,0000.0,0013.14,0004.70,0003.88
2024-01-04 03:02:00,SystemResetWarning,0827.3,5.00,000.00,023.9,022.6,000.0,032.3,025.1,9.4,0000.0,0013.56,0004.64,0003.83
2024-01-04 03:03:00,SystemResetWarning,0827.2,5.00,000.00,023.9,022.6,000.0,032.3,025.1,9.5,0000.0,0013.61,0004.64,0003.79
2024-01-04 03:04:00,SystemResetWarning,0827.2,5.00,000.00,023.8,022.6,000.0,032.2,025.1,9.5,0000.0,0013.06,0004.64,0003.75
2024-01-04 03:05:00,SystemResetWarning,0827.2,5.00,000.00,023.8,022.6,000.0,032.2,025.1,9.5,0000.0,0012.58,0004.66,0003.71
2024-01-04 03:06:00,SystemResetWarning,0827.2,5.01,000.00,023.8,022.6,000.0,032.2,025.1,9.5,0000.0,0012.76,0004.67,0003.68
2024-01-04 03:07:00,SystemResetWarning,0827.2,5.00,000.00,023.8,022.6,000.0,032.2,025.0,9.6,0000.0,0012.57,0004.64,0003.66
2024-01-04 03:08:00,SystemResetWarning,0827.2,5.00,000.00,023.8,022.6,000.0,032.2,025.0,9.6,0000.0,0013.08,0004.66,0003.63
2024-01-04 03:09:00,SystemResetWarning,0827.2,5.00,000.00,023.8,022.6,000.0,032.2,025.0,9.7,0000.0,0013.30,0004.64,0003.60
2024-01-04 03:10:00,SystemResetWarning,0827.2,5.00,000.00,023.8,022.6,000.0,032.2,025.0,9.7,0000.0,0013.28,0004.59,0003.58
2024-01-04 03:11:00,SystemResetWarning,0827.1,5.00,000.00,023.8,022.6,000.0,032.1,025.0,9.7,0000.0,0013.75,0004.56,0003.57
2024-01-04 03:12:00,SystemResetWarning,0827.1,4.99,000.00,023.7,022.6,000.0,032.1,025.0,9.8,0000.0,0014.28,0004.57,0003.56
2024-01-04 03:13:00,SystemResetWarning,0827.2,4.99,000.00,023.7,022.5,000.0,032.1,025.0,9.8,0000.0,0014.31,0004.58,0003.55
2024-01-04 03:14:00,SystemResetWarning,0827.2,5.01,000.00,023.7,022.5,000.0,032.1,025.0,9.8,0000.0,0014.51,0004.55,0003.54
2024-01-04 03:15:00,SystemResetWarning,0827.2,5.00,000.00,023.7,022.5,000.0,032.1,025.0,9.9,0000.0,0014.25,0004.51,0003.53
2024-01-04 03:16:00,SystemResetWarning,0827.1,5.00,000.00,023.7,022.5,000.0,032.1,024.9,9.9,0000.0,0014.01,0004.50,0003.51
2024-01-04 03:17:00,SystemResetWarning,0827.2,5.00,000.00,023.7,022.5,000.0,032.1,024.9,10.0,0000.0,0014.39,0004.46,0003.49
2024-01-04 03:18:00,SystemResetWarning,0827.2,5.00,000.00,023.7,022.4,000.0,032.1,024.9,10.0,0000.0,0014.28,0004.43,0003.46
2024-01-04 03:19:00,SystemResetWarning,0827.2,5.00,000.00,023.7,022.4,000.0,032.0,024.9,10.0,0000.0,0013.74,0004.39,0003.44
2024-01-04 03:20:00,SystemResetWarning,0827.2,5.00,000.00,023.6,022.4,000.0,032.0,024.9,10.0,0000.0,0013.43,0004.34,0003.42
2024-01-04 03:21:00,SystemResetWarning,0827.2,5.00,000.00,023.6,022.4,000.0,032.0,024.9,10.1,0000.0,0013.28,0004.29,0003.39
2024-01-04 03:22:00,SystemResetWarning,0827.1,5.00,000.00,023.6,022.4,000.0,032.0,024.9,10.1,0000.0,0013.01,0004.25,0003.36
2024-01-04 03:23:00,SystemResetWarning,0827.1,5.00,000.00,023.6,022.3,000.0,032.0,024.9,10.1,0000.0,0012.05,0004.26,0003.37
2024-01-04 03:24:00,SystemResetWarning,0827.1,4.99,000.00,023.6,022.3,000.0,032.0,024.9,10.1,0000.0,0011.52,0004.32,0003.40
2024-01-04 03:25:00,SystemResetWarning,0827.1,4.99,000.00,023.6,022.3,000.0,032.0,024.9,10.1,0000.0,0011.75,0004.32,0003.41
2024-01-04 03:26:00,SystemResetWarning,0827.1,5.00,000.00,023.6,022.3,000.0,031.9,024.8,10.1,0000.0,0011.54,0004.34,0003.44
2024-01-04 03:27:00,SystemResetWarning,0827.1,5.00,000.00,023.5,022.2,000.0,031.9,024.8,10.1,0000.0,0011.01,0004.37,0003.51
2024-01-04 03:28:00,SystemResetWarning,0827.2,5.00,000.00,023.5,022.2,000.0,031.9,024.8,10.1,0000.0,0011.02,0004.41,0003.61
2024-01-04 03:29:00,SystemResetWarning,0827.1,5.01,000.00,023.5,022.2,000.0,031.9,024.8,10.1,0000.0,0011.21,0004.55,0003.73
2024-01-04 03:30:00,SystemResetWarning,0827.2,5.00,000.00,023.5,022.2,000.0,031.9,024.8,10.1,0000.0,0012.07,0004.72,0003.87
2024-01-04 03:31:00,SystemResetWarning,0827.1,5.00,000.00,023.5,022.2,000.0,031.9,024.8,10.1,0000.0,0012.05,0004.84,0004.03
2024-01-04 03:32:00,SystemResetWarning,0827.1,5.00,000.00,023.5,022.2,000.0,031.9,024.8,10.2,0000.0,0012.48,0005.01,0004.19
2024-01-04 03:33:00,SystemResetWarning,0827.1,5.01,000.00,023.5,022.2,000.0,031.9,024.8,10.2,0000.0,0012.61,0005.18,0004.36
2024-01-04 03:34:00,SystemResetWarning,0827.1,4.99,000.00,023.5,022.2,000.0,031.8,024.7,10.2,0002.8,0012.59,0005.31,0004.50
2024-01-04 03:35:00,SystemResetWarning,0827.1,4.99,000.00,023.4,022.1,000.0,031.8,024.7,10.2,0003.8,0012.97,0005.46,0004.64
2024-01-04 03:36:00,SystemResetWarning,0827.1,4.99,000.00,023.4,022.1,000.0,031.8,024.7,10.2,0004.2,0013.21,0005.60,0004.76
2024-01-04 03:37:00,SystemResetWarning,0827.1,5.00,000.00,023.4,022.1,000.0,031.8,024.7,10.2,0004.6,0013.19,0005.73,0004.89
2024-01-04 03:38:00,SystemResetWarning,0827.1,5.00,000.00,023.4,022.2,000.0,031.8,024.7,10.2,0005.2,0013.10,0005.83,0004.97
2024-01-04 03:39:00,SystemResetWarning,0827.1,5.00,000.00,023.4,022.2,000.0,031.8,024.7,10.2,0005.1,0012.40,0005.94,0005.05
2024-01-04 03:40:00,SystemResetWarning,0827.1,5.01,000.00,023.4,022.2,000.0,031.8,024.7,10.2,0005.2,0012.44,0006.01,0005.10
2024-01-04 03:41:00,SystemResetWarning,0827.1,5.00,000.00,023.4,022.2,000.0,031.8,024.7,10.2,0005.0,0012.38,0006.05,0005.13
2024-01-04 03:42:00,SystemResetWarning,0827.1,4.99,000.00,023.4,022.2,000.0,031.8,024.6,10.2,0005.1,0013.05,0006.11,0005.16
2024-01-04 03:43:00,SystemResetWarning,0827.0,5.00,000.00,023.4,022.2,000.0,031.7,024.7,10.2,0005.5,0013.02,0006.11,0005.17
2024-01-04 03:44:00,SystemResetWarning,0827.1,5.00,000.00,023.3,022.2,000.0,031.7,024.6,10.3,0005.3,0013.37,0006.12,0005.19
2024-01-04 03:45:00,SystemResetWarning,0827.1,5.00,000.00,023.3,022.2,000.0,031.7,024.7,10.3,0005.3,0013.62,0006.16,0005.21
2024-01-04 03:46:00,SystemResetWarning,0827.0,5.00,000.00,023.3,022.2,000.0,031.7,024.6,10.3,0005.1,0014.00,0006.11,0005.23
2024-01-04 03:47:00,SystemResetWarning,0827.0,5.00,000.00,023.3,022.2,000.0,031.7,024.6,10.3,0004.7,0013.13,0006.11,0005.24
2024-01-04 03:48:00,SystemResetWarning,0827.0,5.00,000.00,023.3,022.2,000.0,031.7,024.6,10.3,0004.0,0013.37,0006.13,0005.27
2024-01-04 03:49:00,SystemResetWarning,0827.0,5.01,000.00,023.3,022.2,000.0,031.7,024.6,10.3,0003.8,0014.57,0006.09,0005.29
2024-01-04 03:50:00,SystemResetWarning,0826.9,5.01,000.00,023.3,022.2,000.0,031.7,024.6,10.3,0003.6,0014.59,0006.12,0005.31
2024-01-04 03:51:00,SystemResetWarning,0826.9,5.01,000.00,023.3,022.2,000.0,031.7,024.6,10.3,0003.4,0014.70,0006.12,0005.32
2024-01-04 03:52:00,SystemResetWarning,0827.0,5.00,000.00,023.3,022.2,000.0,031.6,024.6,10.3,0003.7,0014.62,0006.12,0005.36
2024-01-04 03:53:00,SystemResetWarning,0826.9,4.98,000.00,023.2,022.2,000.0,031.6,024.6,10.3,0003.9,0015.43,0006.09,0005.39
2024-01-04 03:54:00,SystemResetWarning,0827.0,4.99,000.00,023.2,022.2,000.0,031.6,024.5,10.3,0003.5,0015.29,0006.17,0005.43
2024-01-04 03:55:00,SystemResetWarning,0827.0,5.00,000.00,023.2,022.2,000.0,031.6,024.5,10.3,0003.7,0014.73,0006.20,0005.44
2024-01-04 03:56:00,SystemResetWarning,0826.9,5.01,000.00,023.2,022.2,000.0,031.6,024.5,10.3,0003.9,0014.77,0006.21,0005.44
2024-01-04 03:57:00,SystemResetWarning,0827.0,5.00,000.00,023.2,022.2,000.0,031.6,024.5,10.3,0004.3,0014.01,0006.18,0005.42
2024-01-04 03:58:00,SystemResetWarning,0827.0,5.01,000.00,023.2,022.1,000.0,031.6,024.5,10.3,0004.6,0014.44,0006.19,0005.41
2024-01-04 03:59:00,SystemResetWarning,0826.9,5.00,000.00,023.2,022.1,000.0,031.6,024.5,10.3,0004.6,0015.21,0006.16,0005.39
